FW2530 Weather Reports


Display with metric or nautical units.
time (UTC)temp
F
wind
direction
speed
MPH
gust
MPH
rain 1hr
in
rain 24hr
in
rain mn
in
humidity
%
barometer
mb
20260506113004 42 360 1.0 5.0 0.00 0.07 0.02 77 1007.6
20260506112525 42 360 2.0 5.0 0.00 0.07 0.02 77 1007.4
20260506112005 42 360 1.0 8.0 0.00 0.07 0.02 77 1007.4
20260506111504 42 360 1.0 5.0 0.00 0.07 0.02 77 1007.2
20260506111004 42 360 1.0 4.0 0.00 0.07 0.02 77 1007.0
20260506110504 42 360 1.0 4.0 0.00 0.07 0.02 77 1007.1
20260506110004 43 360 2.0 7.0 0.00 0.07 0.02 77 1007.0
20260506105504 43 360 1.0 5.0 0.00 0.07 0.02 77 1006.8
20260506105004 44 360 1.0 4.0 0.00 0.07 0.02 77 1006.8
20260506104504 44 360 1.0 7.0 0.00 0.07 0.02 77 1006.8
20260506104004 44 344 2.0 7.0 0.00 0.07 0.02 77 1006.8
20260506103504 45 301 1.0 8.0 0.00 0.07 0.02 77 1006.7
20260506103005 45 268 1.0 4.0 0.00 0.07 0.02 77 1006.7
20260506102504 45 266 1.0 4.0 0.00 0.07 0.02 77 1006.5
20260506102004 45 264 0.0 5.0 0.00 0.07 0.02 78 1006.4
20260506101525 46 258 0.0 3.0 0.00 0.07 0.02 78 1006.3
20260506101025 46 244 1.0 3.0 0.00 0.07 0.02 78 1006.4
20260506100504 46 234 1.0 5.0 0.00 0.07 0.02 78 1006.5
20260506100025 46 222 0.0 4.0 0.00 0.07 0.02 78 1006.4
20260506095504 46 218 0.0 1.0 0.00 0.07 0.02 78 1006.4
20260506095004 46 218 0.0 4.0 0.00 0.07 0.02 77 1006.5
20260506094504 46 218 0.0 1.0 0.00 0.07 0.02 77 1006.7
20260506094004 46 214 0.0 3.0 0.00 0.07 0.02 77 1006.8
20260506093504 46 209 0.0 4.0 0.00 0.07 0.02 77 1006.8
20260506093004 46 197 0.0 0.0 0.00 0.07 0.02 77 1006.5
20260506092504 46 195 1.0 3.0 0.00 0.07 0.02 77 1006.2
20260506092004 46 198 2.0 5.0 0.00 0.07 0.02 77 1006.0
20260506091525 46 209 2.0 7.0 0.00 0.07 0.02 77 1006.0
20260506091004 46 222 2.0 7.0 0.00 0.07 0.02 77 1005.9
20260506090504 46 222 1.0 4.0 0.00 0.07 0.02 77 1006.1
20260506090004 46 222 1.0 4.0 0.00 0.07 0.02 77 1006.5
20260506085504 46 221 2.0 4.0 0.00 0.07 0.02 77 1006.5
20260506085004 46 224 3.0 8.0 0.00 0.07 0.02 77 1006.7
20260506084525 46 228 3.0 8.0 0.00 0.07 0.02 77 1006.7
20260506084004 46 233 2.0 5.0 0.00 0.07 0.02 77 1006.8
20260506083525 46 234 1.0 5.0 0.00 0.07 0.02 77 1006.9
20260506083004 47 234 1.0 3.0 0.00 0.07 0.02 77 1006.9
20260506082504 47 234 1.0 5.0 0.00 0.07 0.02 77 1006.8
20260506082004 47 234 1.0 3.0 0.00 0.07 0.02 77 1006.8
20260506081504 47 235 1.0 3.0 0.00 0.07 0.02 77 1006.7
20260506081004 47 235 1.0 5.0 0.00 0.07 0.02 77 1006.8
20260506080504 47 235 0.0 3.0 0.00 0.07 0.02 77 1006.8
20260506073504 47 235 1.0 7.0 0.00 0.07 0.02 77 1007.0
20260506073004 47 236 0.0 4.0 0.00 0.07 0.02 77 1007.0
20260506072504 47 0 0.0 1.0 0.00 0.07 0.02 77 1007.2
20260506072004 47 236 0.0 0.0 0.00 0.07 0.02 77 1007.0
20260506071504 47 236 0.0 1.0 0.00 0.07 0.02 77 1006.9
20260506071025 47 235 0.0 3.0 0.00 0.07 0.02 77 1007.0
20260506070525 47 234 0.0 4.0 0.00 0.07 0.02 77 1007.2
20260506062505 47 224 2.0 5.0 0.01 0.07 0.02 77 1006.7
20260506062003 47 224 2.0 5.0 0.01 0.07 0.02 77 1006.6
20260506061504 47 223 1.0 4.0 0.01 0.07 0.02 77 1006.8
20260506061004 48 224 1.0 4.0 0.01 0.07 0.02 77 1006.8
20260506060504 48 224 2.0 7.0 0.01 0.07 0.02 77 1006.9
20260506051003 48 227 3.0 9.0 0.01 0.06 0.01 78 1007.0
20260506050525 48 226 2.0 7.0 0.01 0.06 0.01 78 1006.9
20260506045004 48 245 3.0 7.0 0.02 0.06 0.01 79 1007.0
20260506044504 48 230 2.0 7.0 0.02 0.06 0.01 79 1007.1
20260506044004 48 187 3.0 7.0 0.02 0.06 0.01 79 1007.0
20260506043505 48 177 5.0 8.0 0.02 0.06 0.00 79 1006.9
20260506043005 48 175 5.0 11.0 0.02 0.06 0.00 79 1007.0
20260506042525 48 182 4.0 9.0 0.02 0.06 0.00 79 1007.0
20260506042004 48 187 5.0 8.0 0.02 0.06 0.00 79 1007.2
20260506041504 48 189 5.0 8.0 0.02 0.06 0.00 80 1007.4
20260506041004 48 192 5.0 8.0 0.02 0.06 0.00 80 1007.4
20260506040525 48 192 5.0 9.0 0.02 0.06 0.00 80 1007.4
20260506040004 48 192 5.0 9.0 0.02 0.06 0.00 80 1007.4
20260506035504 48 198 5.0 11.0 0.01 0.05 0.05 80 1007.4
20260506035004 48 208 5.0 8.0 0.01 0.05 0.05 81 1007.5
20260506034504 48 216 4.0 7.0 0.01 0.05 0.05 81 1007.5
20260506034004 48 219 3.0 7.0 0.00 0.04 0.04 81 1007.5
20260506033503 48 217 1.0 5.0 0.00 0.04 0.04 81 1007.6
20260506033005 48 216 2.0 4.0 0.00 0.04 0.04 81 1007.7
20260506032503 48 212 3.0 8.0 0.00 0.04 0.04 81 1007.8
20260506032025 48 211 3.0 7.0 0.00 0.04 0.04 81 1007.7
20260506031503 48 216 2.0 7.0 0.00 0.04 0.04 81 1007.8
20260506031003 48 221 2.0 5.0 0.00 0.04 0.04 81 1007.7
20260506030504 49 221 3.0 7.0 0.00 0.04 0.04 81 1007.7
20260506030003 48 222 3.0 5.0 0.00 0.04 0.04 81 1007.6
20260506025524 49 212 3.0 5.0 0.00 0.04 0.04 81 1007.5
20260506025004 49 188 3.0 7.0 0.00 0.04 0.04 81 1007.5
20260506024504 49 180 4.0 7.0 0.00 0.04 0.04 82 1007.3
20260506024003 49 178 4.0 9.0 0.00 0.04 0.04 82 1007.3
20260506023503 49 194 4.0 7.0 0.00 0.04 0.04 82 1007.3
20260506023004 49 212 4.0 9.0 0.00 0.04 0.04 82 1007.3
20260506022504 49 202 5.0 7.0 0.00 0.04 0.04 82 1007.4
20260506022004 49 185 5.0 8.0 0.00 0.04 0.04 82 1007.4
20260506021504 49 178 5.0 11.0 0.00 0.04 0.04 83 1007.4
20260506021004 49 164 6.0 9.0 0.00 0.04 0.04 83 1007.5
20260506020504 50 162 5.0 11.0 0.00 0.04 0.04 83 1007.4
20260506020004 50 174 4.0 11.0 0.00 0.06 0.04 83 1007.4
20260506015504 50 178 4.0 7.0 0.00 0.06 0.04 84 1007.5
20260506015004 50 185 4.0 8.0 0.00 0.06 0.04 84 1007.5
20260506014504 50 198 4.0 8.0 0.00 0.06 0.04 85 1007.5
20260506014003 50 213 3.0 12.0 0.00 0.07 0.04 85 1007.4
20260506013525 50 225 3.0 5.0 0.00 0.08 0.04 85 1007.3
20260506013004 50 252 3.0 5.0 0.00 0.08 0.04 85 1007.3
20260506012525 50 306 2.0 7.0 0.00 0.08 0.04 85 1007.3
20260506012004 50 342 1.0 4.0 0.00 0.08 0.04 85 1007.2
20260506011504 50 342 2.0 4.0 0.00 0.08 0.04 85 1007.1
20260506011024 50 342 2.0 4.0 0.00 0.08 0.04 84 1007.1
20260506010504 50 342 1.0 4.0 0.00 0.08 0.04 84 1006.9
20260506010004 50 342 1.0 3.0 0.00 0.08 0.04 84 1006.9
20260506005504 50 341 1.0 4.0 0.00 0.08 0.04 84 1006.9
20260506005004 50 341 1.0 3.0 0.00 0.08 0.04 84 1006.6
20260506004504 50 341 1.0 4.0 0.00 0.08 0.04 84 1006.7
20260506004004 50 341 2.0 4.0 0.00 0.08 0.04 84 1006.7
20260506003504 50 341 1.0 4.0 0.00 0.08 0.04 83 1006.6
20260506003003 50 340 2.0 4.0 0.00 0.08 0.04 83 1006.6
20260506002504 50 340 2.0 5.0 0.00 0.08 0.04 83 1006.5
20260506002004 50 340 1.0 5.0 0.00 0.08 0.04 83 1006.5
20260506001504 50 0 0.0 0.0 0.00 0.08 0.04 83 1006.4
20260506001004 50 0 0.0 0.0 0.00 0.08 0.04 83 1006.4
20260506000504 50 0 0.0 0.0 0.00 0.08 0.04 83 1006.2
20260506000004 51 0 0.0 0.0 0.00 0.08 0.04 82 1006.4
20260505235503 51 0 0.0 0.0 0.00 0.08 0.04 82 1006.3
20260505235003 51 0 0.0 0.0 0.00 0.08 0.04 82 1006.4
20260505234504 51 0 0.0 0.0 0.00 0.08 0.04 82 1006.1
20260505234004 51 0 0.0 0.0 0.00 0.08 0.04 82 1006.2
20260505233525 51 0 0.0 0.0 0.00 0.08 0.04 82 1006.3
20260505233004 51 0 0.0 0.0 0.00 0.08 0.04 81 1006.2
20260505232503 51 0 0.0 0.0 0.00 0.08 0.04 81 1006.3
20260505232025 51 0 0.0 0.0 0.00 0.08 0.04 81 1006.3
20260505231504 51 336 0.0 0.0 0.00 0.08 0.04 81 1006.4
20260505231004 51 336 0.0 3.0 0.00 0.08 0.04 81 1006.4
20260505230525 51 336 0.0 3.0 0.00 0.08 0.04 81 1006.4
20260505230004 51 336 1.0 0.0 0.00 0.08 0.04 81 1006.4
20260505225525 51 336 1.0 5.0 0.00 0.08 0.04 81 1006.5
20260505225024 51 336 1.0 3.0 0.00 0.08 0.04 81 1006.4
20260505224503 51 336 1.0 3.0 0.00 0.08 0.04 82 1006.5
20260505224003 51 336 1.0 4.0 0.00 0.08 0.04 81 1006.5
20260505223504 51 336 0.0 3.0 0.00 0.08 0.04 82 1006.4
20260505223003 51 336 0.0 3.0 0.00 0.08 0.04 82 1006.5
20260505222503 51 336 0.0 0.0 0.00 0.08 0.04 82 1006.5
20260505222003 51 336 0.0 3.0 0.00 0.08 0.04 82 1006.4
20260505221503 51 336 0.0 3.0 0.00 0.08 0.04 82 1006.5
20260505221003 51 336 0.0 1.0 0.00 0.08 0.04 83 1006.6
20260505220504 51 336 0.0 0.0 0.00 0.08 0.04 83 1006.6
20260505220024 50 336 0.0 4.0 0.00 0.08 0.04 83 1006.6
20260505215504 50 0 0.0 1.0 0.00 0.08 0.04 83 1006.6
20260505215003 50 336 0.0 0.0 0.00 0.08 0.04 83 1006.6
20260505214504 50 336 0.0 3.0 0.00 0.08 0.04 83 1006.6
20260505214004 50 336 0.0 3.0 0.00 0.08 0.04 83 1006.6
20260505213503 50 336 0.0 0.0 0.00 0.08 0.04 83 1006.6
20260505213003 50 336 1.0 1.0 0.00 0.08 0.04 83 1006.7
20260505212503 50 336 1.0 4.0 0.00 0.08 0.04 83 1006.8
20260505212025 50 336 1.0 4.0 0.00 0.08 0.04 83 1006.8
20260505211503 50 336 0.0 1.0 0.00 0.08 0.04 83 1006.7
20260505211003 50 336 1.0 3.0 0.00 0.08 0.04 83 1006.6
20260505210503 50 336 1.0 4.0 0.00 0.08 0.04 83 1006.7
20260505210003 50 336 0.0 4.0 0.00 0.08 0.04 83 1006.7
20260505205503 50 336 0.0 3.0 0.00 0.08 0.04 83 1006.7
20260505205003 50 335 1.0 3.0 0.00 0.08 0.04 83 1006.7
20260505204503 50 334 1.0 5.0 0.00 0.08 0.04 83 1006.7
20260505204003 50 333 1.0 5.0 0.00 0.08 0.04 83 1006.7
20260505203504 50 332 1.0 3.0 0.00 0.08 0.04 83 1006.7
20260505203004 50 331 1.0 5.0 0.00 0.08 0.04 83 1006.8
20260505202504 50 330 2.0 4.0 0.00 0.08 0.04 83 1006.8
20260505202003 50 331 2.0 8.0 0.00 0.08 0.04 82 1006.9
20260505201504 50 331 2.0 5.0 0.00 0.08 0.04 82 1006.9
20260505201024 50 331 2.0 7.0 0.00 0.08 0.04 82 1007.0
20260505200503 50 331 1.0 4.0 0.00 0.08 0.04 82 1006.9
20260505200004 50 332 1.0 4.0 0.00 0.08 0.04 82 1006.8
20260505195503 50 332 1.0 7.0 0.01 0.08 0.04 82 1006.9
20260505195004 50 332 1.0 4.0 0.01 0.08 0.04 82 1006.9
20260505194503 50 332 1.0 5.0 0.02 0.08 0.04 82 1006.8
20260505194003 50 332 1.0 4.0 0.02 0.08 0.04 81 1006.7
20260505193503 51 332 1.0 4.0 0.02 0.08 0.04 81 1006.7
20260505193003 51 336 2.0 4.0 0.02 0.08 0.04 80 1006.6
20260505192503 51 343 2.0 7.0 0.03 0.08 0.04 80 1006.4
20260505192003 51 351 1.0 5.0 0.03 0.08 0.04 80 1006.6
20260505191503 51 352 1.0 5.0 0.03 0.08 0.04 79 1006.4
20260505191004 51 354 0.0 5.0 0.03 0.08 0.04 79 1006.5
20260505190503 51 360 0.0 0.0 0.04 0.08 0.04 77 1006.3
20260505190003 52 359 1.0 3.0 0.04 0.08 0.04 77 1006.3
20260505185503 52 356 1.0 4.0 0.03 0.07 0.03 75 1006.4
20260505185003 52 351 1.0 5.0 0.03 0.07 0.03 74 1006.5
20260505184503 52 351 1.0 4.0 0.02 0.06 0.02 73 1006.5
20260505184003 53 351 1.0 4.0 0.02 0.06 0.02 73 1006.4
20260505183503 53 351 0.0 3.0 0.02 0.06 0.02 72 1006.5
20260505183003 53 351 0.0 1.0 0.02 0.06 0.02 71 1006.3
20260505182503 54 351 0.0 1.0 0.01 0.05 0.01 71 1006.4
20260505182003 54 351 1.0 3.0 0.01 0.05 0.01 70 1006.4
20260505181524 54 351 1.0 4.0 0.01 0.05 0.01 70 1006.5
20260505181003 54 351 1.0 4.0 0.01 0.05 0.01 70 1006.2
20260505180503 55 351 1.0 3.0 0.00 0.04 0.00 69 1006.2
20260505180004 55 350 1.0 4.0 0.00 0.04 0.00 69 1006.1
20260505175524 55 350 2.0 7.0 0.00 0.04 0.00 69 1006.0
20260505175003 55 348 2.0 5.0 0.00 0.04 0.00 68 1006.1
20260505174503 56 340 2.0 7.0 0.00 0.04 0.00 67 1005.7
20260505174003 56 331 2.0 8.0 0.00 0.04 0.00 67 1006.1
20260505173503 56 332 3.0 8.0 0.00 0.04 0.00 64 1006.0
20260505173003 56 350 3.0 7.0 0.00 0.04 0.00 63 1006.1
20260505172504 57 360 4.0 11.0 0.00 0.04 0.00 62 1006.0
20260505172004 57 360 3.0 11.0 0.00 0.04 0.00 63 1005.9
20260505171503 57 360 3.0 7.0 0.00 0.04 0.00 63 1005.9
20260505171004 57 360 3.0 8.0 0.00 0.04 0.00 63 1005.6
20260505170524 57 360 3.0 7.0 0.00 0.04 0.00 64 1005.3
20260505170003 57 360 4.0 7.0 0.00 0.04 0.00 63 1005.3
20260505165503 57 360 4.0 11.0 0.00 0.04 0.00 64 1005.2
20260505165003 57 354 4.0 11.0 0.00 0.04 0.00 64 1005.3
20260505164503 57 351 3.0 8.0 0.00 0.04 0.00 64 1005.1
20260505164026 57 359 3.0 7.0 0.00 0.04 0.00 66 1005.0
20260505163505 57 339 3.0 9.0 0.00 0.04 0.00 66 1005.2
20260505163026 57 328 3.0 11.0 0.00 0.04 0.00 67 1005.2
20260505162526 57 332 2.0 8.0 0.00 0.04 0.00 67 1005.2
20260505162005 57 358 1.0 1.0 0.00 0.04 0.00 67 1005.0
20260505161505 57 360 2.0 5.0 0.00 0.04 0.00 67 1004.9
20260505161005 57 360 3.0 5.0 0.00 0.04 0.00 68 1005.1
20260505160526 58 360 4.0 11.0 0.00 0.04 0.00 68 1005.2
20260505153026 57 360 5.0 13.0 0.00 0.04 0.00 67 1005.2
20260505152505 58 360 4.0 12.0 0.00 0.04 0.00 67 1005.3
20260505152005 58 360 4.0 13.0 0.00 0.04 0.00 68 1005.1
20260505151506 58 350 4.0 11.0 0.00 0.04 0.00 67 1005.1
20260505151005 58 335 5.0 12.0 0.00 0.04 0.00 67 1005.1
20260505150526 59 329 4.0 13.0 0.00 0.04 0.00 67 1004.7
20260505140505 56 360 4.0 8.0 0.00 0.04 0.00 72 1003.7
20260505125005 50 358 3.0 7.0 0.00 0.04 0.00 81 1002.8
20260505124526 49 358 3.0 7.0 0.00 0.04 0.00 81 1002.9
20260505124005 49 350 4.0 11.0 0.00 0.04 0.00 81 1002.7
20260505123504 49 339 4.0 11.0 0.00 0.04 0.00 81 1002.7
20260505123005 49 345 3.0 8.0 0.00 0.04 0.00 81 1002.5
20260505122505 49 360 4.0 8.0 0.00 0.04 0.00 81 1002.2
20260505122005 49 360 5.0 11.0 0.00 0.04 0.00 81 1002.1
20260505121505 50 360 5.0 15.0 0.00 0.04 0.00 81 1002.0
20260505121005 50 358 5.0 11.0 0.00 0.04 0.00 80 1002.1
20260505120505 51 359 6.0 11.0 0.00 0.04 0.00 79 1001.8
20260505120005 52 360 6.0 15.0 0.00 0.04 0.00 79 1002.0
20260505115505 53 357 5.0 13.0 0.00 0.04 0.00 79 1001.9
20260505115005 54 350 4.0 12.0 0.00 0.04 0.00 79 1001.6
20260505114504 56 351 4.0 11.0 0.00 0.04 0.00 79 1001.1
20260505114004 57 350 3.0 12.0 0.00 0.04 0.00 80 1001.0
20260505113505 58 345 3.0 9.0 0.00 0.04 0.00 81 1000.7